FW8161 Weather Reports


time (UTC)temp
C
wind
direction
speed
KPH
gust
KPH
rain 1hr
cm
rain 24hr
cm
rain mn
cm
humidity
%
barometer
mb
20260502123051 2 77 1.6 8.0 0.00 0.00 0.00 83 1022.2
20260502121554 1 0 0.0 9.7 0.00 0.00 0.00 85 1022.0
20260502120111 0 0 0.0 3.2 0.00 0.00 0.00 90 1021.9
20260502114559 0 0 0.0 0.0 0.00 0.00 0.00 91 1021.8
20260502113047 -1 0 0.0 0.0 0.00 0.00 0.00 90 1021.7
20260502111553 -2 0 0.0 0.0 0.00 0.00 0.00 89 1021.7
20260502110053 -2 0 0.0 0.0 0.00 0.00 0.00 87 1021.7
20260502104554 -2 0 0.0 0.0 0.00 0.00 0.00 88 1021.5
20260502103048 -2 0 0.0 0.0 0.00 0.00 0.00 87 1021.5
20260502101550 -1 0 0.0 0.0 0.00 0.00 0.00 85 1021.4
20260502100112 -1 0 0.0 0.0 0.00 0.00 0.00 85 1021.3
20260502070057 0 0 0.0 0.0 0.00 0.00 0.00 83 1021.0
20260502064558 0 0 0.0 0.0 0.00 0.00 0.00 81 1020.9
20260502063050 0 0 0.0 0.0 0.00 0.00 0.00 79 1021.1
20260502061552 1 0 0.0 0.0 0.00 0.00 0.00 79 1021.2
20260502060050 1 0 0.0 0.0 0.00 0.00 0.00 78 1021.3
20260502054549 1 0 0.0 0.0 0.00 0.00 0.00 77 1021.1
20260502053052 1 0 0.0 0.0 0.00 0.00 0.00 76 1021.3
20260502051624 1 0 0.0 0.0 0.00 0.00 0.00 75 1021.1
20260502050054 2 0 0.0 1.6 0.00 0.00 0.00 73 1021.2
20260502044601 2 0 0.0 1.6 0.00 0.00 0.00 72 1021.1
20260502043051 2 31 0.0 6.4 0.00 0.00 0.00 71 1021.1
20260502041556 2 53 0.0 4.8 0.00 0.00 0.00 70 1021.1
20260502040059 2 59 0.0 4.8 0.00 0.00 0.00 70 1020.9
20260502034557 2 0 0.0 6.4 0.00 0.00 0.00 69 1020.9
20260502033055 2 0 0.0 6.4 0.00 0.00 0.00 67 1020.8
20260502031612 2 44 1.6 8.0 0.00 0.00 0.00 66 1020.8
20260502030057 3 52 1.6 12.9 0.00 0.00 0.00 64 1020.9
20260502024557 3 63 3.2 11.3 0.00 0.00 0.00 63 1020.9
20260502023052 3 0 4.8 20.9 0.00 0.00 0.00 61 1020.7
20260502021555 3 13 3.2 11.3 0.00 0.00 0.00 58 1020.5
20260502020057 3 50 6.4 16.1 0.00 0.00 0.00 57 1020.4
20260502014548 3 85 8.0 17.7 0.00 0.00 0.00 57 1020.3
20260502013053 4 52 3.2 16.1 0.00 0.00 0.00 57 1020.3
20260502011552 4 45 8.0 20.9 0.00 0.00 0.00 56 1020.0
20260502010054 5 67 6.4 24.1 0.00 0.00 0.00 56 1019.9
20260502004550 5 30 6.4 19.3 0.00 0.00 0.00 57 1019.8
20260502003046 5 14 4.8 22.5 0.00 0.00 0.00 57 1019.6
20260502001549 5 359 1.6 9.7 0.00 0.00 0.00 58 1019.4
20260502000049 6 94 1.6 9.7 0.00 0.00 0.00 56 1019.3
20260501234555 6 56 0.0 12.9 0.00 0.00 0.00 53 1019.2
20260501233055 6 116 1.6 17.7 0.00 0.00 0.00 51 1019.0
20260501231557 7 265 1.6 11.3 0.00 0.00 0.00 51 1019.0
20260501230048 7 286 0.0 16.1 0.00 0.00 0.00 54 1019.0
20260501224549 6 0 0.0 16.1 0.00 0.00 0.00 57 1019.1
20260501223049 6 65 3.2 11.3 0.00 0.00 0.00 56 1019.1
20260501221552 6 262 1.6 8.0 0.00 0.00 0.00 61 1019.0
20260501220053 6 302 0.0 3.2 0.00 0.00 0.00 61 1019.0
20260501214602 6 0 0.0 4.8 0.00 0.00 0.00 61 1019.1
20260501213100 6 293 0.0 4.8 0.00 0.00 0.00 62 1018.9
20260501211551 6 0 0.0 8.0 0.00 0.00 0.00 62 1018.8
20260501210048 6 0 0.0 11.3 0.00 0.00 0.00 62 1018.8
20260501204556 6 74 1.6 9.7 0.00 0.00 0.00 63 1018.6
20260501203051 6 299 1.6 6.4 0.00 0.00 0.00 63 1018.8
20260501201552 6 51 1.6 12.9 0.00 0.00 0.00 62 1018.8
20260501200057 6 54 1.6 14.5 0.00 0.00 0.00 63 1018.7
20260501194558 6 0 0.0 8.0 0.00 0.00 0.00 62 1018.7
20260501193055 6 270 0.0 9.7 0.00 0.00 0.00 62 1018.5
20260501191551 7 22 0.0 9.7 0.00 0.00 0.00 61 1018.4
20260501190114 7 6 3.2 12.9 0.00 0.00 0.00 60 1018.2
20260501184550 7 0 1.6 12.9 0.00 0.00 0.00 61 1018.0
20260501183052 7 0 6.4 12.9 0.00 0.00 0.00 59 1018.0
20260501181557 7 303 0.0 11.3 0.00 0.00 0.00 61 1018.0
20260501180054 7 49 4.8 14.5 0.00 0.00 0.00 59 1018.1
20260501174605 7 44 1.6 16.1 0.00 0.00 0.00 60 1018.0
20260501173105 7 25 1.6 16.1 0.00 0.00 0.00 62 1017.9
20260501171559 7 50 6.4 17.7 0.00 0.00 0.00 59 1018.1
20260501170053 7 46 3.2 14.5 0.00 0.00 0.00 58 1018.2
20260501164559 7 209 1.6 14.5 0.00 0.00 0.00 60 1018.1
20260501163053 6 261 3.2 11.3 0.00 0.00 0.00 61 1018.2
20260501161552 6 271 3.2 11.3 0.00 0.00 0.00 62 1018.4
20260501154608 6 307 6.4 12.9 0.00 0.00 0.00 61 1018.5
20260501153055 6 0 3.2 11.3 0.00 0.00 0.00 64 1018.3
20260501151550 5 58 3.2 11.3 0.00 0.00 0.00 66 1018.3
20260501150056 5 49 1.6 6.4 0.00 0.00 0.00 68 1018.3
20260501144555 5 48 3.2 9.7 0.00 0.00 0.00 70 1018.2
20260501143056 5 37 6.4 12.9 0.00 0.00 0.00 69 1018.2